CZ-4B DEB, 56088

Orbit data source: Space-Track

CZ-4B DEB, 56088 is space debris in SSO originally from a launch on Wed, 24 Oct 2018 UTC launched from the Taiyaun Space Center, China (TSC). Debris objects in space refer to the collection of defunct objects orbiting the Earth. Examples of debris include non-operational satellites, rocket bodies, and fragments generated from explosions, collisions, or faulty payload assembly.

Loading next visibility...
Identifier
56088, 2018-081J
Orbit
SSO
Last TLE update
21 hours ago
Origin
Manufacturer
Unknown
Mission
Spacecraft
Bus & Motor
Unknown
Mass
Unknown
Launch date (UTC)
2018-10-24 (7 years ago)
Launch vehicle
Unknown
Launch site
Taiyaun Space Center, China (TSC)
Object type
Payload
Rocket body
Debris
Shape & HBR
Unknown
Radar Cross Section
Small (<0.1 m²)

Expand to show TLE details & history

TLE from 21 hours ago
0 CZ-4B DEB
1 56088U 18081J   25128.40380529  .00004787  00000-0  18874-2 0  9990
2 56088  98.7653 282.6525 0144615 334.5577  24.8530 14.24017718108008
Epoch: 2025-05-08T09:41Z
Definitive object data (Epoch: 2025-05-08T09:41:28.777Z)
Latitude
-0.00001°
Longitude
-89.1922°
Altitude
720.621 km
Speed
7.544 km/s
True Right ascension
18h 50m 36s
True Declination
0° 00' 00"
Sunlit
Object was in full shadow at TLE epoch
Visualization TLE readout
Latitude
-73.67396°
Longitude
60.12474°
Altitude
812.056 km
Speed
7.46 km/s
Apparent Right ascension
03h 43m 29s
Apparent Declination
-58° 06' 20"
Sunlit
Object is in daylight
Visualization observer readout
Local Sidereal Time
15:17:09
Azimuth
190.91° SSW
Elevation
-71.326°
Doppler factor
1
Orbital elements
Apogee altitude
912.888 km
Perigee altitude
705.016 km
Semi-major axis
7,187.089 km
Eccentricity
0.0144615
Inclination
98.7653°
RAAN
282.6525°
Arg. of periapsis
334.5577°
True anomaly
25.56108°
Mean anomaly
24.853°
Eccentric anomaly
25.20587°
Mean motion
3.56216 °/min
BSTAR
0.0018874
Orbital period
101.06 mins
Loading maneuver chart data...
Loading SW <> Apogee altitude chart data...
Loading historical data...
Loading historical data...
Loading historical data...
Loading historical data...
Loading historical data...
Loading historical data...
Loading historical data...

CZ-4B DEB Visibility forecast

Observer location: undefined°, undefined°

Span
Click to sort rows by Start time (UTC) header in descending order
Start Az.
Max El. time (UTC)
Max El. Az.
Max El.
End time (UTC)
End Az.
8 mins2025-05-09 09:26:12.327Z125.84° SE2025-05-09 09:30:12.327Z59.661° ENE28.756°2025-05-09 09:34:12.327Z6.385° NNE
6 mins2025-05-09 11:07:12.327Z221.268° SW2025-05-09 11:10:12.327Z272.972° WNW24.325°2025-05-09 11:13:12.327Z315.495° NNW
5 mins2025-05-09 21:44:12.327Z67.935° E2025-05-09 21:46:12.327Z90.89° ESE15.186°2025-05-09 21:49:12.327Z123.432° SE
10 mins2025-05-09 23:22:12.327Z7.596° NNE2025-05-09 23:26:12.327Z314.12° NW43.365°2025-05-09 23:32:12.327Z203.228° SW
|